User: anonymous   Login
Location: Unspecified
(0.0000°N, 0.0000°E)
Time: 07:43:57
(UTC+00:00)
Language:

DMSP B5D2-1 - Orbit

View from above orbital plane
View from above orbital plane
View from above satellite
View from above satellite

Ground track
Ground track

The orbit data is extracted from the following two-line orbital elements,

1 13736U 82118A   18110.48950142 -.00000009 +00000-0 +13573-4 0  9997
2 13736 098.5798 298.4301 0008719 077.0528 283.1628 14.29267055839257
Epoch (UTC): 20 April 2018 11:44:52
Eccentricity: 0.0008719
inclination: 98.5798°
perigee height: 788 km
apogee height: 800 km
right ascension of ascending node: 298.4301°
argument of perigee: 77.0528°
revolutions per day: 14.29267055
mean anomaly at epoch: 283.1628°
orbit number at epoch: 83925

The dashed part of the orbit path shows where the satellite is in the earth's shadow,  

DLR